Location: Malvern Link
(52.1333°N, 2.3000°W)
Time: 06:35:11
(UTC+00:00)

AIST 2D - Visible Passes

Search period start: 28 June 2022 00:00
Search period end: 08 July 2022 00:00
Orbit: 433 x 449 km, 97.1° (Epoch: 27 June)

Date Brightness Start Highest point End Pass type
(mag) Time Alt. Az. Time Alt. Az. Time Alt. Az.
28 Jun ? 22:36:27 10° N 22:39:26 31° WNW 22:42:25 10° SW visible
29 Jun ? 21:58:29 10° NNE 22:01:50 88° WNW 22:05:09 10° SSW visible
30 Jun ? 21:21:00 10° NNE 21:24:01 31° E 21:27:02 10° SSE visible
30 Jun ? 22:53:54 10° NNW 22:56:30 21° WNW 22:59:05 10° WSW visible
01 Jul ? 22:15:40 10° N 22:18:56 54° WNW 22:22:11 10° SSW visible
02 Jul ? 21:37:55 10° NNE 21:41:11 51° E 21:44:25 10° S visible
02 Jul ? 23:11:30 10° NNW 23:13:27 15° WNW 23:15:23 10° W visible
03 Jul ? 22:32:52 10° N 22:35:56 34° WNW 22:38:59 10° SW visible
04 Jul ? 21:54:52 10° NNE 21:58:13 84° ESE 22:01:34 10° SSW visible
04 Jul ? 23:29:44 10° NW 23:30:17 10° WNW 23:30:49 10° WNW visible
05 Jul ? 21:17:20 10° NNE 21:20:18 29° E 21:23:16 10° SSE visible
05 Jul ? 22:50:07 10° NNW 22:52:49 23° WNW 22:55:30 10° WSW visible
06 Jul ? 22:11:51 10° N 22:15:09 60° WNW 22:18:27 10° SSW visible
07 Jul ? 21:34:02 10° NNE 21:37:17 46° E 21:40:31 10° S visible
07 Jul ? 23:07:27 10° NNW 23:09:35 16° WNW 23:11:42 10° WSW visible
